Regional Weather Roundup
Issued by NWS Kansas City/Pleasant Hill, MO

Home | Current Version | Previous Version | Text Only | Print | Product List | Glossary On
Versions: 1 2 3 4 5 6 7 8 9 10 11 12 13 14 15 16 17 18 19 20 21 22 23 24 25 26 27
000
ASUS43 KEAX 221310
RWREAX

WEATHER ROUNDUP FOR EASTERN KANSAS AND NORTHWEST MISSOURI
NATIONAL WEATHER SERVICE KANSAS CITY/PLEASANT HILL MO
800 AM CDT SUN OCT 22 2017

KSZ040-057-103>105-MOZ028-029-037-043-221400-
...KANSAS CITY METROPOLITAN AREA...

CITY           SKY/WX    TMP DP  RH WIND       PRES   REMARKS
K.C. INTL      MOCLDY    47  47 100 W6        30.07S
K.C. DOWNTOWN  CLOUDY    50  48  93 W5        30.08R
LEES SUMMIT    CLOUDY    49  48  97 NW10      30.07R
OLATHE - IXD   MOCLDY    48  47  96 NW8       30.09R
OLATHE - OJC   CLOUDY    47  47 100 NW6       30.07R
LAWRENCE       CLEAR     47  46  97 W8        30.10R

$$

MOZ001>008-011>017-020>025-030>033-038>040-044>046-053-054-221400-
...NORTHERN AND CENTRAL MISSOURI...

CITY           SKY/WX    TMP DP  RH WIND       PRES   REMARKS
ST. JOSEPH     PTCLDY    45  44  97 NW5       30.09R
MOSBY          CLOUDY    48  46  93 CALM      30.07S
WARRENSBURG    CLOUDY    46  46 100 NW6       30.06R
WHITEMAN AFB   RAIN      50  48  93 N9        30.00R
CLINTON        LGT RAIN  50  48  93 N10       30.06R
SEDALIA        LGT RAIN  52  52 100 NW13      30.04R
WARSAW         NOT AVBL
CHILLICOTHE      N/A     50  49  96 VRB3      30.06R
KIRKSVILLE     CLOUDY    50  50 100 NW9       30.01R

$$

MOZ041-047>049-056>058-063>065-088>090-097-221400-
...EASTERN AND SOUTHERN MISSOURI...

CITY           SKY/WX    TMP DP  RH WIND       PRES   REMARKS
ST. LOUIS INTL LGT RAIN  63  63 100 W10       29.92R
SPIRIT OF STL  LGT RAIN  62  61  96 W6        29.91R
COLUMBIA       LGT RAIN  54  53  97 NW12      29.99R
JEFFERSON CITY LGT RAIN  56  53  90 W10       29.99R
ROLLA          CLOUDY    57  57 100 NW5       29.96S
OSAGE BEACH    LGT RAIN  54  53  97 NW7       29.99R
SPRINGFIELD    LGT RAIN  53  52  96 NW14G22   30.01R
BRANSON        LGT RAIN  57  57 100 CALM      30.00R FOG
JOPLIN         CLOUDY    52  52 100 NW7       30.07R
WEST PLAINS    CLOUDY    59  57  93 CALM      29.97S

$$

IAZ060-094-KSZ022-034>040-054-083-096-NEZ052-066-093-221400-
...KANSAS...SOUTHEAST NEBRASKA AND IOWA...

CITY           SKY/WX    TMP DP  RH WIND       PRES   REMARKS
TOPEKA         CLEAR     46  45  96 W7        30.11R
MANHATTAN      CLEAR     41  40  96 SW3       30.14S
EMPORIA        CLEAR     44  40  85 W3        30.14R
CHANUTE        PTCLDY    49  46  90 NW7       30.10R
WICHITA        CLEAR     45  41  86 NW9       30.16R
OMAHA          PTCLDY    44  36  73 NW6       30.10R
LINCOLN        CLEAR     41  35  79 SW3       30.13S
FALLS CITY     CLEAR     45  40  82 W8        30.09R
LAMONI         CLOUDY    49  46  90 W8        30.04R
DES MOINES     CLOUDY    50  45  83 NW6       30.01S

$$





USA.gov is the U.S. government's official web portal to all federal, state and local government web resources and services.